Location: Woodland Altars Campground
(39.0410°N, 83.3840°W)
Time: 11:20:30
(UTC-05:00)

ISS - Visible Passes

Search period start: 15 December 2018 00:00
Search period end: 25 December 2018 00:00
Orbit: 401 x 408 km, 51.6° (Epoch: 16 December)

Date Brightness Start Highest point End Pass type
(mag) Time Alt. Az. Time Alt. Az. Time Alt. Az.
15 Dec -0.7 18:10:40 10° W 18:13:01 18° SW 18:15:20 10° S visible
22 Dec -2.1 07:12:12 10° SSW 07:15:16 38° SE 07:18:21 10° ENE visible
23 Dec -1.0 06:20:42 10° S 06:23:09 19° SE 06:25:36 10° E visible
24 Dec -3.9 07:03:50 10° SW 07:07:06 79° NW 07:10:24 10° NE visible
